Location: Krasnoyarskiy Pitomnik
(51.1333°N, 71.6167°E)
Time: 11:04:54
(UTC+00:00)

Altair - Pass Details

Date: 19 April 2024
Orbit: 1501 x 1682 km, 47.2° (Epoch: 17 May)

Event Time Altitude Azimuth Distance (km) Brightness Sun altitude
Rises 11:56:30 0° 174° (S) 4,917 10.2 20.8°
Reaches altitude 10° 12:01:53 10° 151° (SSE) 3,918 9.5 20.0°
Maximum altitude 12:06:16 14° 125° (SE) 3,600 9.1 19.3°
Drops below altitude 10° 12:10:37 10° 98° (E) 3,880 9.1 18.6°
Sets 12:15:51 0° 75° (ENE) 4,835 9.5 17.8°
